Effective Sunday, March 17, 2024, the National Weather Service National Data Buoy Center will discontinue its Dial-A-Buoy Interactive Voice Response system. For more information, see Service Change Notice 24-06 (PDF).

Station 51003 (LLNR 28005.7) - WESTERN HAWAII - 205 NM SW of Honolulu, HI Image indicating link to RSS feed of recent meteorological observations for station 51003


Conditions at 51003 as of
(8:30 pm HAST on 03/01/2024)
0630 GMT on 03/02/2024:
     

Click on the graph icon in the table below to see a time series plot of the last five days of that observation.

5-day plot - Wind Direction Wind Direction (WDIR):ENE ( 70 deg true )
5-day plot - Wind Speed Wind Speed (WSPD): 15.5 kts
5-day plot - Wind Gust Wind Gust (GST): 19.4 kts
5-day plot - Atmospheric Pressure Atmospheric Pressure (PRES):30.10 in
5-day plot - Air Temperature Air Temperature (ATMP): 75.9 °F
5-day plot - Dew Point Dew Point (DEWP): 66.7 °F
5-day plot - Wind Speed at 10 Meters Wind Speed at 10 meters (WSPD10M): 17.5 kts
5-day plot - Wind Speed at 20 Meters Wind Speed at 20 meters (WSPD20M): 19.4 kts
5-day plot -  Wind Speed, Wind Gust and Atmospheric Pressure Combined plot of Wind Speed, Gust, and Air Pressure
Supplemental Measurements
Highest 1-minute Wind Speed
Time (HAST)5-day plot - 1-Minute Wind Speed WSPD 5-day plot - 1-Minute Wind Direction WDIR
8:27 pm 17.5 kts-
Previous observations
TIME
(HAST)
5-day plot - Wind Direction
WDIR
 
5-day plot - Wind Speed
WSPD
kts
5-day plot - Wind Gust
GST
kts
5-day plot - Wave Height
WVHT
ft
5-day plot - Dominant Wave Period
DPD
sec
5-day plot - Average Wave Period
APD
sec
5-day plot - Mean Wave Direction
MWD
 
5-day plot - Atmospheric Pressure
PRES
in
5-day plot - Pressure Tendency
PTDY
in
5-day plot - Air Temperature
ATMP
°F
5-day plot - Water Temperature
WTMP
°F
5-day plot - Dew Point
DEWP
°F
5-day plot - Salinity
SAL
psu
5-day plot - Visibility
VIS
nmi
5-day plot - Tide (above MLLW)
TIDE
ft
2024-03-01 08:20 pmENE 15.5 19.4 7.2 86.2 E30.10- 75.9- 66.6---
2024-03-01 08:10 pm E 15.5 19.4 7.2-6.2 E30.10- 76.1- 66.7---
2024-03-01 08:00 pmENE 15.5 19.4----30.09+0.04 75.7- 66.7---
2024-03-01 07:50 pmENE 13.6 19.4 6.9 86.1ESE30.09- 75.9- 68.5---
2024-03-01 07:40 pmENE 15.5 17.5----30.09- 75.9- 68.4---
2024-03-01 07:30 pmENE 15.5 17.5----30.08- 75.9- 67.8---
2024-03-01 07:20 pmENE 15.5 17.5 6.6 86.3ESE30.08- 75.9- 67.8---
2024-03-01 07:10 pmENE 15.5 17.5 6.6-6.3ESE30.08- 75.9- 67.8---
2024-03-01 07:00 pmENE 15.5 17.5----30.08+0.04 75.7- 67.6---
2024-03-01 06:50 pmENE 13.6 19.4 6.9 86.4ESE30.07- 75.9- 68.4---
2024-03-01 06:40 pmENE 13.6 17.5 6.9-6.4ESE30.07- 75.6- 68.5---
2024-03-01 06:30 pmENE 13.6 17.5----30.07- 75.4- 69.1---
2024-03-01 06:20 pmENE 13.6 15.5 6.9 86.2ESE30.07- 75.4- 68.7---
2024-03-01 06:10 pmENE 13.6 17.5----30.07- 75.2- 68.4---
2024-03-01 06:00 pmENE 13.6 17.5----30.07+0.03 75.4- 68.4---
2024-03-01 05:50 pm NE 11.7 15.5 6.6 86.1 E30.06- 75.0- 67.8---
2024-03-01 05:40 pmENE 13.6 15.5 6.6-6.1 E30.06- 75.0- 68.2---
2024-03-01 05:30 pm NE 13.6 15.5----30.06- 75.0- 68.7---
2024-03-01 05:20 pm NE 13.6 15.5 6.9 86.2ESE30.05- 74.8- 68.7---
2024-03-01 05:10 pm NE 13.6 17.5 6.9-6.2ESE30.05- 75.0- 69.4---
2024-03-01 05:00 pm NE 13.6 17.5----30.05-0.02 74.8- 68.9---
2024-03-01 04:50 pm NE 13.6 17.5 6.9 86.2 E30.05- 74.8- 69.1---
2024-03-01 04:40 pm NE 13.6 17.5----30.05- 74.8- 69.3---
2024-03-01 04:30 pm NE 13.6 17.5----30.05- 74.8- 69.3---
2024-03-01 04:20 pm NE 13.6 17.5 6.9 86.3 E30.05- 75.0- 69.4---
2024-03-01 04:10 pm NE 13.6 17.5 6.9-6.3 E30.05- 75.6- 68.5---
2024-03-01 04:00 pmENE 13.6 17.5----30.04-0.05 75.7- 67.6---
2024-03-01 03:50 pmENE 15.5 17.5 6.9 86.2 E30.04- 75.7- 67.1---
2024-03-01 03:40 pmENE 13.6 17.5----30.04- 75.7- 67.1---
2024-03-01 03:30 pmENE 13.6 17.5----30.04- 75.7- 66.9---
2024-03-01 03:20 pmENE 13.6 17.5 6.2 86.0 E30.04- 75.6- 67.5---
2024-03-01 03:10 pmENE 13.6 17.5 6.2-6.0 E30.04- 75.4- 67.5---
2024-03-01 03:00 pmENE 13.6 17.5----30.04-0.06 75.4- 68.0---
2024-03-01 02:50 pmENE 13.6 17.5 6.2 86.0 E30.05- 75.4- 68.0---
2024-03-01 02:40 pmENE 13.6 15.5----30.05- 75.2- 67.8---
2024-03-01 02:30 pmENE 13.6 15.5----30.06- 75.2- 67.6---
2024-03-01 02:20 pmENE 13.6 17.5 6.9 86.0ESE30.06- 75.4- 67.3---
2024-03-01 02:10 pmENE 13.6 17.5 6.9-6.0ESE30.06- 75.4- 66.9---
2024-03-01 02:00 pmENE 13.6 17.5----30.07-0.04 75.2- 66.9---
2024-03-01 01:50 pmENE 13.6 17.5 6.6 86.0 E30.08- 75.0- 67.8---
2024-03-01 01:40 pmENE 15.5 19.4----30.08- 75.0- 68.4---
2024-03-01 01:20 pmENE 15.5 19.4 6.6 86.0ESE30.09- 75.0- 68.4---
2024-03-01 01:10 pmENE 15.5 19.4 6.6-6.0ESE30.09- 75.0- 68.4---
2024-03-01 01:00 pmENE 15.5 19.4----30.09-0.01 75.2- 68.4---
2024-03-01 12:50 pmENE 15.5 19.4 6.2 85.9ESE30.09- 75.0- 68.0---
2024-03-01 12:40 pmENE 17.5 19.4----30.09- 75.0- 67.6---
2024-03-01 12:30 pmENE 15.5 21.4----30.10- 75.0- 68.0---
2024-03-01 12:20 pmENE 15.5 19.4 6.2 85.8 E30.10- 74.8- 68.2---
2024-03-01 12:10 pmENE 15.5 19.4 6.2-5.8 E30.10- 75.0- 68.9---
2024-03-01 12:00 pm E 15.5 17.5----30.10+0.00 75.0- 68.9---
2024-03-01 11:50 am E 15.5 21.4 6.6 86.0 E30.10- 73.9- 68.4---
2024-03-01 11:40 am E 17.5 21.4----30.09- 74.5- 69.3---
2024-03-01 11:30 am E 15.5 19.4----30.09- 74.8- 69.6---
2024-03-01 11:20 am E 15.5 19.4 5.9 85.7ESE30.10- 74.8- 69.3---
2024-03-01 11:10 am E 15.5 19.4 5.9-5.7ESE30.10- 74.8- 69.4---
2024-03-01 11:00 am E 15.5 19.4----30.11+0.01 75.0- 69.4---
2024-03-01 10:50 am E 15.5 19.4 6.2 86.2 E30.11- 75.4- 68.9---
2024-03-01 10:40 am E 15.5 19.4----30.11- 75.6- 67.8---
2024-03-01 10:30 am E 15.5 19.4----30.10- 75.4- 67.3---
2024-03-01 10:20 am E 15.5 19.4 6.2 86.1ESE30.10- 75.4- 67.5---
2024-03-01 10:10 am E 15.5 19.4 6.2-6.1ESE30.10- 75.4- 67.6---
2024-03-01 10:00 am E 15.5 19.4----30.10+0.03 75.0- 67.8---
2024-03-01 09:50 am E 15.5 17.5 6.2 86.2ESE30.10- 75.0- 68.4---
2024-03-01 09:40 am E 13.6 17.5 6.2-6.2ESE30.11- 74.8- 68.0---
2024-03-01 09:30 am E 13.6 17.5----30.11- 74.7- 68.4---
2024-03-01 09:20 am E 13.6 17.5 6.2 86.3ESE30.10- 74.8- 68.5---
2024-03-01 09:10 am E 13.6 17.5 6.2-6.3ESE30.10- 74.8- 68.4---
2024-03-01 09:00 am E 13.6 15.5----30.10+0.03 75.0- 68.5---
2024-03-01 08:50 am E 13.6 17.5 5.9 86.2 E30.09- 74.7- 67.6---
2024-03-01 08:40 am E 13.6 17.5----30.09- 74.3- 68.2---
2024-03-01 08:30 am E 15.5 19.4----30.09- 74.3- 68.7---
2024-03-01 08:20 am E 13.6 17.5 5.6 86.0 E30.09- 74.1- 68.2---
2024-03-01 08:10 am E 15.5 17.5 5.6-6.0 E30.09- 74.5- 69.1---
2024-03-01 08:00 am E 13.6 19.4----30.09+0.04 74.5- 69.1---
2024-03-01 07:50 am E 11.7 15.5 6.6 86.3 E30.09- 73.9- 68.4---
2024-03-01 07:40 am E 13.6 17.5----30.09- 73.8- 68.2---
2024-03-01 07:30 am E 13.6 17.5----30.09- 73.4- 67.8---
2024-03-01 07:20 amESE 13.6 15.5 6.2 76.2 E30.09- 73.0- 68.4---
2024-03-01 07:10 amESE 15.5 21.4 6.2-6.2 E30.08- 73.8- 68.2---
2024-03-01 07:00 am E 11.7 19.4----30.08+0.03 74.8- 68.0---
2024-03-01 06:50 am E 11.7 15.5 6.2 86.2 E30.08- 74.8- 67.8---
2024-03-01 06:40 am E 11.7 15.5 6.2-6.2 E30.08- 74.7- 67.6---
2024-03-01 06:30 am E 11.7 13.6----30.07- 74.8- 67.8---
2024-03-01 06:20 am E 11.7 15.5 6.2 86.3 E30.07- 74.8- 68.0---
2024-03-01 06:10 am E 11.7 15.5 6.2-6.3 E30.07- 75.0- 67.8---
2024-03-01 06:00 am E 11.7 15.5----30.07+0.01 74.8- 67.3---
2024-03-01 05:50 am E 11.7 15.5 6.6 86.4 E30.06- 74.7- 67.5---
2024-03-01 05:40 am E 11.7 15.5----30.06- 74.8- 68.2---
2024-03-01 05:30 am E 9.7 13.6----30.06- 74.5- 68.2---
2024-03-01 05:20 am E 7.8 9.7 6.2 86.2ENE30.06- 73.6- 68.2---
2024-03-01 05:10 am E 9.7 17.5 6.2-6.2ENE30.06- 73.0- 67.5---
2024-03-01 05:00 am E 13.6 19.4----30.06-0.03 74.5- 67.3---
2024-03-01 04:50 am E 9.7 11.7 6.6 86.3 E30.06- 74.8- 67.6---
2024-03-01 04:40 am E 9.7 13.6 6.6-6.3 E30.05- 74.8- 67.3---
2024-03-01 04:30 am E 9.7 13.6----30.05- 74.8- 67.1---
2024-03-01 04:20 am E 11.7 15.5 6.6 86.5 E30.05- 74.8- 67.1---
2024-03-01 04:10 amENE 11.7 17.5 6.6-6.5 E30.05- 74.8- 67.6---
2024-03-01 04:00 am E 11.7 15.5----30.05-0.06 74.8- 67.8---
2024-03-01 03:50 amENE 11.7 15.5 6.6 86.3 E30.05- 74.8- 68.7---
2024-03-01 03:40 amENE 13.6 15.5----30.05- 74.8- 68.4---
2024-03-01 03:30 amENE 13.6 17.5----30.05- 74.7- 68.0---
2024-03-01 03:20 amENE 13.6 17.5 6.6 86.3 E30.06- 75.2- 68.7---
2024-03-01 03:10 amENE 11.7 15.5 6.6-6.3 E30.05- 75.2- 68.4---
2024-03-01 03:00 amENE 13.6 15.5----30.06-0.06 75.4- 68.0---
2024-03-01 02:50 amENE 13.6 17.5 6.2 86.3ESE30.06- 75.0- 67.6---
2024-03-01 02:40 amENE 11.7 15.5----30.07- 74.7- 68.4---
2024-03-01 02:30 amENE 9.7 13.6----30.07- 74.5- 68.9---
2024-03-01 02:20 am NE 11.7 13.6 5.9 86.2 E30.07- 73.8- 68.9---
2024-03-01 02:10 amENE 9.7 15.5 5.9-6.2 E30.08- 73.4- 68.7---
2024-03-01 02:00 amENE 13.6 19.4----30.09-0.03 74.7- 68.4---
2024-03-01 01:50 amENE 11.7 15.5 6.2 86.0 E30.09- 75.4- 67.6---
2024-03-01 01:40 amENE 11.7 15.5 6.2-6.0 E30.09- 75.2- 67.1---
2024-03-01 01:30 amENE 11.7 15.5----30.10- 75.4- 67.3---
2024-03-01 01:20 amENE 13.6 17.5 5.9 86.2ESE30.10- 75.4- 66.7---
2024-03-01 01:10 amENE 13.6 15.5 5.9-6.2ESE30.10- 75.4- 67.1---
2024-03-01 01:00 amENE 11.7 17.5----30.11+0.00 75.4- 67.3---
2024-03-01 12:50 amENE 13.6 15.5 6.6 86.2 E30.11- 75.2- 67.1---
2024-03-01 12:40 amENE 13.6 15.5 6.6-6.2 E30.11- 75.4- 67.5---
2024-03-01 12:30 amENE 13.6 15.5----30.11- 75.2- 66.9---
2024-03-01 12:20 amENE 13.6 17.5 6.2 86.1 E30.11- 75.2- 67.5---
2024-03-01 12:10 amENE 15.5 17.5 6.2-6.1 E30.11- 75.2- 67.6---
2024-03-01 12:00 amENE 13.6 17.5----30.11+0.02 75.0- 68.0---
2024-02-29 11:50 pmENE 13.6 17.5 6.2 86.1ESE30.11- 75.2- 67.8---
2024-02-29 11:40 pmENE 13.6 17.5 6.2-6.1ESE30.11- 75.2- 67.6---
2024-02-29 11:30 pmENE 15.5 17.5----30.11- 75.2- 67.5---
2024-02-29 11:20 pmENE 13.6 17.5 6.2 85.9 E30.11- 75.2- 67.6---
2024-02-29 11:10 pmENE 13.6 15.5 6.2-5.9 E30.11- 75.2- 67.5---
2024-02-29 11:00 pmENE 13.6 17.5----30.12+0.04 75.2- 67.5---
2024-02-29 10:50 pmENE 13.6 17.5 7.2 86.2 E30.11- 75.0- 67.1---
2024-02-29 10:40 pmENE 13.6 17.5----30.11- 75.0- 67.3---
2024-02-29 10:30 pmENE 13.6 17.5----30.11- 75.0- 67.3---
2024-02-29 10:20 pmENE 13.6 17.5 7.2 86.0 E30.11- 75.0- 67.3---
2024-02-29 10:10 pm E 15.5 17.5 7.2-6.0 E30.12- 75.0- 66.9---
2024-02-29 10:00 pm E 13.6 19.4----30.11+0.06 74.5- 66.7---
2024-02-29 09:50 pm E 15.5 17.5 7.2 85.9 E30.11- 74.3- 67.6---
2024-02-29 09:40 pm E 15.5 19.4 7.2-5.9 E30.10- 74.3- 67.8---
2024-02-29 09:30 pm E 15.5 19.4----30.10- 74.5- 68.0---
2024-02-29 09:20 pm E 17.5 21.4 7.5 86.0 E30.10- 74.5- 67.8---
2024-02-29 09:10 pm E 17.5 21.4 7.5-6.0 E30.09- 74.5- 67.6---
2024-02-29 09:00 pm E 17.5 23.3----30.09+0.05 74.3- 67.6---
2024-02-29 08:50 pm E 17.5 21.4 6.9 85.8 E30.09- 74.5- 68.0---
2024-02-29 08:40 pm E 17.5 21.4 6.9-5.8 E30.09- 74.5- 67.3---
2024-02-29 08:30 pm E 17.5 21.4----30.08- 74.5- 67.6---
2024-02-29 08:20 pm E 17.5 21.4 6.6 85.8 E30.08- 74.7- 67.8---
2024-02-29 08:10 pm E 17.5 21.4 6.6-5.8 E30.08- 74.7- 67.1---
2024-02-29 08:00 pm E 17.5 23.3----30.07+0.05 74.7- 67.6---
2024-02-29 07:50 pm E 17.5 21.4 7.2 86.0ESE30.07- 74.7- 67.8---

Detailed Wave Summary
for 51003 as of
(8:10 pm HAST on 03/01/2024)
0610 GMT on 03/02/2024:

These wave data are displayed in rounded times.

     

Click on the graph icon in the table below to see a time series plot of the last five days of that observation.

5-day plot - Significant Wave Height Significant Wave Height (WVHT): 7.2 ft
5-day plot - Swell Height Swell Height (SwH): 5.2 ft
5-day plot - Swell Period Swell Period (SwP): 8.3 sec
5-day plot - Swell Direction Swell Direction (SwD): E
5-day plot - Wind Wave Height Wind Wave Height (WWH): 5.2 ft
5-day plot - Wind Wave Period Wind Wave Period (WWP): 7.1 sec
5-day plot - Wind Wave Direction Wind Wave Direction (WWD): E
5-day plot - Wave Steepness Wave Steepness (STEEPNESS): STEEP
5-day plot - Average Wave Period Average Wave Period (APD): 6.2 sec
Previous observations
TIME
(HAST)
5-day plot - Wave Height
WVHT
ft
5-day plot - Swell Height
SwH
ft
5-day plot - Swell Period
SwP
sec
5-day plot - Swell Direction
SwD
 
5-day plot - Wind Wave Height
WWH
ft
5-day plot - Wind Wave Period
WWP
sec
5-day plot - Wind Wave Direction
WWD
 
5-day plot - Wave Steepness
STEEPNESS
 
5-day plot - Average Wave Period
APD
sec
2024-03-01 07:40 pm 6.9 4.9 8.3ESE 4.9 5.9 E AVERAGE 6.1
2024-03-01 07:10 pm 6.6 4.9 7.7ESE 4.3 4.3 E STEEP 6.3
2024-03-01 06:40 pm 6.9 5.2 8.3ESE 4.3 6.2 E AVERAGE 6.4
2024-03-01 06:10 pm 6.9 5.6 8.3ESE 4.3 5.9 E AVERAGE 6.2
2024-03-01 05:40 pm 6.6 5.6 7.7 E 3.6 5.3 E STEEP 6.1
2024-03-01 05:10 pm 6.9 5.6 8.3ESE 4.3 6.2 E AVERAGE 6.2
2024-03-01 04:40 pm 6.9 5.2 8.3 E 3.9 5.6 E AVERAGE 6.2
2024-03-01 04:10 pm 6.9 5.2 7.7 E 4.3 5.9 E STEEP 6.3
2024-03-01 03:40 pm 6.9 5.6 8.3 E 4.3 5.3 E AVERAGE 6.2
2024-03-01 03:10 pm 6.2 4.6 8.3 E 3.9 6.7 E AVERAGE 6.0
2024-03-01 02:40 pm 6.2 4.9 7.7 E 3.9 5.9 E STEEP 6.0
2024-03-01 02:10 pm 6.9 5.2 8.3ESE 4.6 5.6 E AVERAGE 6.0
2024-03-01 01:40 pm 6.6 4.6 8.3 E 4.6 5.3 E AVERAGE 6.0
2024-03-01 01:10 pm 6.6 4.6 8.3ESE 4.6 5.6 ENE AVERAGE 6.0
2024-03-01 12:40 pm 6.2 3.6 16.0SSE 5.2 7.7 ESE STEEP 5.9
2024-03-01 12:10 pm 6.2 3.6 8.3 E 5.2 6.7 E AVERAGE 5.8
2024-03-01 11:40 am 6.6 2.6 16.0 SE 6.2 7.7 E STEEP 6.0
2024-03-01 11:10 am 5.9 3.9 7.7ESE 4.3 6.7 E STEEP 5.7
2024-03-01 10:40 am 6.2 4.6 8.3 E 3.9 5.6 E AVERAGE 6.2
2024-03-01 10:10 am 6.2 4.6 8.3ESE 3.9 5.3 E AVERAGE 6.1
2024-03-01 09:40 am 6.2 4.9 8.3ESE 3.6 5.9 ESE AVERAGE 6.2
2024-03-01 09:10 am 6.2 5.2 8.3ESE 3.6 5.6 E AVERAGE 6.3
2024-03-01 08:40 am 5.9 4.9 8.3 E 3.6 5.3 ESE AVERAGE 6.2
2024-03-01 08:10 am 5.6 3.9 8.3 E 3.9 5.9 E AVERAGE 6.0
2024-03-01 07:40 am 6.6 5.6 8.3 E 3.3 5.3 E AVERAGE 6.3
2024-03-01 07:10 am 6.2 3.6 16.0SSE 5.2 7.1 E STEEP 6.2
2024-03-01 06:40 am 6.2 5.6 8.3 E 2.6 5.3 E AVERAGE 6.2
2024-03-01 06:10 am 6.2 5.6 8.3 E 3.0 4.5 ENE AVERAGE 6.3
2024-03-01 05:40 am 6.6 5.9 7.7 E 3.0 5.0 ENE STEEP 6.4
2024-03-01 05:10 am 6.2 5.9 7.7ENE 2.3 4.5 E STEEP 6.2
2024-03-01 04:40 am 6.6 5.9 8.3 E 2.6 5.0 ENE AVERAGE 6.3
2024-03-01 04:10 am 6.6 5.9 8.3 E 2.6 4.8 E AVERAGE 6.5
2024-03-01 03:40 am 6.6 5.6 7.7 E 3.6 6.2 E STEEP 6.3
2024-03-01 03:10 am 6.6 5.6 8.3 E 3.3 5.6 E AVERAGE 6.3
2024-03-01 02:40 am 6.2 5.6 8.3ESE 3.3 5.9 E AVERAGE 6.3
2024-03-01 02:10 am 5.9 5.6 7.7 E 2.0 4.2 E STEEP 6.2
2024-03-01 01:40 am 6.2 5.2 8.3 E 3.6 5.9 E AVERAGE 6.0
2024-03-01 01:10 am 5.9 4.9 8.3ESE 3.3 5.0 ESE AVERAGE 6.2
2024-03-01 12:40 am 6.6 5.2 8.3 E 3.9 5.9 E AVERAGE 6.2
2024-03-01 12:10 am 6.2 4.6 8.3 E 4.6 5.9 ESE AVERAGE 6.1
2024-02-29 11:40 pm 6.2 4.9 8.3ESE 3.9 5.3 E AVERAGE 6.1
2024-02-29 11:10 pm 6.2 4.9 7.7 E 3.9 6.2 ENE STEEP 5.9
2024-02-29 10:40 pm 7.2 5.2 8.3 E 4.6 5.6 E AVERAGE 6.2
2024-02-29 10:10 pm 7.2 4.9 8.3 E 5.2 5.9 E STEEP 6.0
2024-02-29 09:40 pm 7.2 4.9 8.3 E 5.2 6.2 E STEEP 5.9
2024-02-29 09:10 pm 7.5 2.6 17.4 SE 6.9 8.3 E STEEP 6.0
2024-02-29 08:40 pm 6.9 3.9 8.3 E 5.2 7.1 E AVERAGE 5.8
2024-02-29 08:10 pm 6.6 2.3 10.8 E 6.2 8.3 E AVERAGE 5.8

Plot of wave energy versus frequency (and period)